Location: Camaret
(48.2753°N, 4.5961°W)
Time: 04:26:29
(UTC+00:00)

Meteor 2-1 Rocket - Pass Details

Date: 29 October 2020
Orbit: 830 x 906 km, 81.3° (Epoch: 01 December)

Event Time Altitude Azimuth Distance (km) Brightness Sun altitude
Rises 19:02:39 0° 192° (SSW) 3,364 7.5 -20.3°
Reaches altitude 10° 19:05:03 10° 193° (SSW) 2,432 6.7 -20.7°
Maximum altitude 19:10:33 82° 281° (W) 846 4.2 -21.6°
Drops below altitude 10° 19:16:08 10° 10° (N) 2,460 6.6 -22.5°
Sets 19:18:34 0° 12° (NNE) 3,406 7.3 -22.9°
